カタログに戻る

CZ-6A DEB

運用中PO
NORAD 60675·DEBRIS·🇨🇳 China

打ち上げ Aug 6, 2024 から Taiyuan Satellite Launch Center

Loading…

次のパス (今後24時間)

TLE

最新Source: Space-Track

元期: Sep 14, 2026, 07:52 UTC

1 60675U 24140CC  26257.32782413  .00000119  00000-0  57516-4 0  9996
2 60675  89.0084 267.0985 0081089 286.6271  72.6021 14.10899260108030

AllMySatでCZ-6A DEBをリアルタイム追跡

Download on the App Store